Regional Weather Roundup
Issued by NWS Upton, NY

Current Version | Previous Version | Text Only | Print | Product List | Glossary On
Versions: 1 2 3 4 5 6 7 8 9 10 11 12 13 14 15 16 17 18 19 20 21 22 23 24 25 26 27 28 29 30 31 32 33 34 35 36 37 38 39 40 41 42 43 44 45 46 47 48 49 50
000 ASUS41 KOKX 222205 RWROKX REGIONAL WEATHER ROUNDUP NATIONAL WEATHER SERVICE NEW YORK NY 500 PM EST SAT NOV 22 2014 NOTE: "FAIR" INDICATES FEW OR NO CLOUDS BELOW 12,000 FEET WITH NO SIGNIFICANT WEATHER AND/OR OBSTRUCTIONS TO VISIBILITY. NYZ071-072-176-178-NJZ106-104-222300- NEW YORK CITY METRO AREA CITY SKY/WX TMP DP RH WIND PRES REMARKS CENTRAL PARK CLOUDY 42 17 36 VRB6 30.27F LAGUARDIA APRT MOCLDY 42 17 36 SW14G24 30.26F KENNEDY INTL MOCLDY 43 22 43 SW16 30.28F NEWARK/LIBERTY MOCLDY 42 18 37 SW16G23 30.26F BRNX BOT. GARD N/A N/A N/A N/A SW18 30.25F TETERBORO CLOUDY 42 16 34 S10 30.25F $$ NYZ177-179-078>081-222300- LONG ISLAND NEW YORK CITY SKY/WX TMP DP RH WIND PRES REMARKS FARMINGDALE CLOUDY 44 18 35 SW12 30.26F ISLIP MOCLDY 42 19 39 SW13 30.23F SHIRLEY CLOUDY 43 24 47 SW12 30.26F WESTHAMPTON CLOUDY 44 26 49 SW16G25 30.27F MONTAUK POINT N/A 43 31 62 SW12G21 30.26F $$ NYZ052-065-067-222300- HUDSON VALLEY CITY SKY/WX TMP DP RH WIND PRES REMARKS WHITE PLAINS MOCLDY 40 14 34 VRB7 30.22F NEWBURGH CLOUDY 39 12 33 SW7 30.20F WCI 34 MONTGOMERY CLOUDY 40 13 33 SW9 30.18F WCI 34 POUGHKEEPSIE CLOUDY 42 11 28 S3 30.20F ALBANY LGT RAIN 38 17 42 S9 30.10F WCI 31 $$ NJZ001-105-106-008-010-013-015-019>022-104-222300- NEW JERSEY CITY SKY/WX TMP DP RH WIND PRES REMARKS NEWARK/LIBERTY MOCLDY 42 18 37 SW16G23 30.26F TETERBORO CLOUDY 42 16 34 S10 30.25F CALDWELL CLOUDY 41 14 33 VRB5 30.26F MORRISTOWN MOCLDY 41 14 33 SW12 30.25F SOMERVILLE CLOUDY 42 18 37 S3 30.26S SUSSEX CLOUDY 41 14 33 SW10G17 30.21F ANDOVER N/A 39 14 36 SW10 30.24S WCI 32 TRENTON CLOUDY 43 17 35 SW10 30.28S MILLVILLE CLOUDY 43 23 45 SW6 30.33S ATLANTIC CITY MOCLDY 42 24 49 SW8 30.33S WRIGHTSTOWN CLOUDY 42 18 38 SW10 30.27S TOMS RIVER CLOUDY 41 19 42 CALM 30.31F BELMAR CLOUDY 43 16 33 SW9 30.28F $$ PAZ047>061-062-071-222300- EASTERN PENNSYLVANIA CITY SKY/WX TMP DP RH WIND PRES REMARKS PHILADELPHIA MOCLDY 45 18 34 SW12 30.31F ALLENTOWN CLOUDY 42 15 33 SW9 30.27S SCRANTON CLOUDY 39 15 37 SW9 30.20S WCI 33 $$ CTZ002-004>006-009-010-012-RIZ004-006-007-MAZ004-011-015-222300- SOUTHERN NEW ENGLAND IN CT CITY SKY/WX TMP DP RH WIND PRES REMARKS BRADLEY INTL CLOUDY 42 11 28 S9 30.17F HARTFORD CLOUDY 40 15 36 S12 30.20F WCI 33 DANBURY CLOUDY 39 10 30 SW6 30.22F WCI 35 WTRBRY/OXFORD CLOUDY 37 12 35 SW7 30.22S WCI 32 BRIDGEPORT CLOUDY 43 22 43 SW14 30.24F MERIDEN CLOUDY 40 14 34 S9 30.22F WCI 34 NEW HAVEN CLOUDY 45 19 35 SW13G26 30.24F CHESTER CLOUDY 39 21 48 SW10G16 30.22S WCI 32 GROTON CLOUDY 42 27 55 W18 30.23F WILLIMANTIC CLOUDY 39 17 41 SW7 30.21F WCI 34 IN RI CITY SKY/WX TMP DP RH WIND PRES REMARKS PROVIDENCE MOCLDY 38 21 50 SW13 30.20F WCI 30 BLOCK ISLAND PTCLDY 43 30 61 W25G35 30.24S WESTERLY MOCLDY 41 24 51 SW15G22 30.24F IN MA CITY SKY/WX TMP DP RH WIND PRES REMARKS BOSTON CLOUDY 41 15 35 SW18G26 30.13F WORCESTER MOCLDY 36 9 32 SW16G23 30.11F WCI 26 WESTFIELD CLOUDY 40 11 30 S16 30.14F WCI 31 PROVINCETOWN PTCLDY 41 25 52 SW28G35 30.17S NANTUCKET PTCLDY 46 34 62 SW25G36 30.24S $$ ANZ330-335-338-340-345-350-353-355-222300- COASTAL MARINE OBSERVATIONS STATION/POSITION TIME SKY/WX TEMP WIND PRES VSBY WAVE AIR SEA DIR/SP/G HT/PER (UTC) (F) (DEG/KT/KT) (MB) (MI) (FT/S) NY HARB ENTRANCE 2200 46 56 230/ 17/ 21 1025.4 3/ 4 4S FIRE IS 2200 52 N/A 5/ 6 20S FIRE ISLAND 2200 46 54 230/ 25/ 29 1025.0 6/ 6 23SW MTP 2200 N/A 8/ 6 HUDSON CANYON 2200 48 58 240/ 25/ 29 1026.1 6/ 6 EXECUTION ROCKS 2200 44 47 230/ 19/ 27 N/A WESTERN LI SOUND 2200 44 220/ 17/ 23 N/A 1/ 3 CENTRAL LI SOUND 2100 43 50 220/ 17/ 23 N/A 3/ 4 EASTERN LI SOUND 2100 43 52 230/ 21/ 29 N/A ROBBINS REEF 2200 42 220/ 11/ 13 1023.6 $$ >>>>>>>>>>>>>>>>>>>>>>>>>>>> KEY <<<<<<<<<<<<<<<<<<<<<<<<<<< > < > SKY/WX - SKY CONDITION/PRESENT WEATHER < > TMP - TEMPERATURE IN FAHRENHEIT < > DP - DEWPOINT IN FAHRENHEIT < > RH - RELATIVE HUMIDITY IN PERCENT < > WIND - DIRECTION AND SPEED IN MPH < > PRES - MEAN SEA LEVEL PRESSURE IN INCHES OF HG < > WCI - WIND CHILL INDEX < > VSB - VISIBILITY IN MILES < > HX - HEAT INDEX < > TC - TEMPERATURE IN CELSIUS < > VRB - VARIABLE WIND DIRECTION < > < >>>>>>>>>>>>>>>>>>>>>>>>>>>> KEY <<<<<<<<<<<<<<<<<<<<<<<<<<<

USA.gov is the U.S. government's official web portal to all federal, state and local government web resources and services.